N4XWC Weather Reports


time (UTC)temp
C
wind
direction
speed
KPH
gust
KPH
rain 1hr
cm
rain 24hr
cm
rain mn
cm
humidity
%
barometer
mb
20260902104222 24 119 0.0 0.0 0.00 0.00 0.00 84 1017.4
20260902104158 24 119 0.0 0.0 0.00 0.00 0.00 84 1017.4
20260902103722 24 119 0.0 1.6 0.00 0.00 0.00 84 1017.4
20260902103223 24 97 1.6 1.6 0.00 0.00 0.00 84 1017.4
20260902103156 24 107 1.6 3.2 0.00 0.00 0.00 84 1017.4
20260902102722 24 95 1.6 3.2 0.00 0.00 0.00 84 1017.4
20260902102222 24 89 1.6 3.2 0.00 0.00 0.00 84 1017.4
20260902102157 24 99 1.6 1.6 0.00 0.00 0.00 84 1017.4
20260902101723 24 89 3.2 3.2 0.00 0.00 0.00 83 1017.4
20260902101222 24 90 3.2 3.2 0.00 0.00 0.00 83 1017.3
20260902101158 24 90 3.2 3.2 0.00 0.00 0.00 83 1017.3
20260902100722 24 88 1.6 3.2 0.00 0.00 0.00 83 1017.3
20260902100223 24 100 3.2 3.2 0.00 0.00 0.00 83 1017.3
20260902100156 24 109 0.0 3.2 0.00 0.00 0.00 83 1017.3
20260902095722 24 90 3.2 4.8 0.00 0.00 0.00 83 1017.1
20260902095412 24 96 3.2 3.2 0.00 0.00 0.00 82 1017.1
20260902095223 24 97 3.2 3.2 0.00 0.00 0.00 82 1017.1
20260902095158 24 96 3.2 3.2 0.00 0.00 0.00 82 1017.1
20260902094722 24 97 1.6 3.2 0.00 0.00 0.00 82 1017.1
20260902094223 24 78 0.0 1.6 0.00 0.00 0.00 82 1016.9
20260902094156 24 78 1.6 3.2 0.00 0.00 0.00 82 1016.9
20260902093723 25 104 0.0 0.0 0.00 0.00 0.00 82 1016.9
20260902093222 25 89 1.6 3.2 0.00 0.00 0.00 81 1016.9
20260902093157 25 86 3.2 3.2 0.00 0.00 0.00 81 1016.9
20260902092723 25 83 3.2 3.2 0.00 0.00 0.00 81 1016.9
20260902092234 25 110 4.8 4.8 0.00 0.00 0.00 81 1016.9
20260902092223 25 113 3.2 4.8 0.00 0.00 0.00 81 1016.9
20260902092157 25 110 4.8 4.8 0.00 0.00 0.00 81 1016.9
20260902091723 25 120 1.6 3.2 0.00 0.00 0.00 80 1016.9
20260902091222 25 136 0.0 0.0 0.00 0.00 0.00 78 1016.7
20260902091157 25 136 0.0 0.0 0.00 0.00 0.00 78 1016.7
20260902090722 25 136 1.6 1.6 0.00 0.00 0.00 78 1016.7
20260902090223 25 136 0.0 0.0 0.00 0.00 0.00 78 1016.7
20260902090156 25 136 0.0 0.0 0.00 0.00 0.00 78 1016.7
20260902085722 25 136 0.0 0.0 0.00 0.00 0.00 77 1016.5
20260902085222 25 116 1.6 1.6 0.00 0.00 0.00 77 1016.5
20260902085155 25 116 1.6 1.6 0.00 0.00 0.00 77 1016.5
20260902084722 25 97 0.0 0.0 0.00 0.00 0.00 76 1016.5
20260902084223 25 103 1.6 3.2 0.00 0.00 0.00 76 1016.3
20260902084156 25 104 1.6 3.2 0.00 0.00 0.00 76 1016.3
20260902083723 25 90 1.6 3.2 0.00 0.00 0.00 76 1016.3
20260902083222 25 92 1.6 3.2 0.00 0.00 0.00 76 1016.3
20260902083157 25 100 3.2 3.2 0.00 0.00 0.00 76 1016.3
20260902082723 25 100 3.2 3.2 0.00 0.00 0.00 76 1016.3
20260902082223 25 96 1.6 1.6 0.00 0.00 0.00 77 1016.3
20260902082157 25 103 1.6 3.2 0.00 0.00 0.00 77 1016.3
20260902081722 25 97 0.0 1.6 0.00 0.00 0.00 77 1016.3
20260902081223 25 99 3.2 3.2 0.00 0.00 0.00 78 1016.2
20260902081156 25 93 0.0 3.2 0.00 0.00 0.00 78 1016.2
20260902080723 25 107 4.8 4.8 0.00 0.00 0.00 78 1016.2
20260902080222 25 82 1.6 3.2 0.00 0.00 0.00 78 1016.2
20260902080157 25 82 1.6 3.2 0.00 0.00 0.00 78 1016.2
20260902075722 25 88 3.2 3.2 0.00 0.00 0.00 78 1016.2
20260902075223 25 89 1.6 4.8 0.00 0.00 0.00 78 1016.2
20260902075157 25 95 3.2 3.2 0.00 0.00 0.00 78 1016.2
20260902074722 25 138 0.0 0.0 0.00 0.00 0.00 78 1016.2
20260902074223 26 138 0.0 0.0 0.00 0.00 0.00 77 1016.2
20260902074156 26 138 0.0 0.0 0.00 0.00 0.00 77 1016.2
20260902073723 26 138 0.0 1.6 0.00 0.00 0.00 77 1016.2
20260902073222 26 119 0.0 3.2 0.00 0.00 0.00 76 1016.2
20260902073157 26 119 1.6 3.2 0.00 0.00 0.00 76 1016.2
20260902072723 26 124 3.2 3.2 0.00 0.00 0.00 75 1016.1
20260902072223 26 120 3.2 3.2 0.00 0.00 0.00 75 1016.1
20260902072156 26 120 3.2 3.2 0.00 0.00 0.00 75 1016.1
20260902071722 26 112 1.6 3.2 0.00 0.00 0.00 75 1016.1
20260902071258 26 103 0.0 3.2 0.00 0.00 0.00 74 1016.1
20260902071223 26 95 3.2 3.2 0.00 0.00 0.00 75 1016.1
20260902071156 26 103 0.0 3.2 0.00 0.00 0.00 74 1016.1
20260902070723 26 99 3.2 3.2 0.00 0.00 0.00 74 1016.1
20260902070412 26 103 3.2 3.2 0.00 0.00 0.00 74 1016.1
20260902070222 26 93 1.6 3.2 0.00 0.00 0.00 74 1016.1
20260902070157 26 103 3.2 3.2 0.00 0.00 0.00 74 1016.1
20260902065723 26 106 1.6 3.2 0.00 0.00 0.00 74 1016.2
20260902065223 26 99 1.6 3.2 0.00 0.00 0.00 74 1016.2
20260902065156 26 99 3.2 3.2 0.00 0.00 0.00 74 1016.2
20260902064722 26 86 3.2 3.2 0.00 0.00 0.00 73 1016.2
20260902064223 26 103 1.6 3.2 0.00 0.00 0.00 73 1016.2
20260902064157 26 103 3.2 3.2 0.00 0.00 0.00 73 1016.2
20260902063723 26 103 1.6 3.2 0.00 0.00 0.00 73 1016.2
20260902063223 26 96 0.0 1.6 0.00 0.00 0.00 73 1016.2
20260902063156 26 97 3.2 3.2 0.00 0.00 0.00 73 1016.2
20260902062724 26 109 1.6 4.8 0.00 0.00 0.00 72 1016.3
20260902062222 26 93 1.6 4.8 0.00 0.00 0.00 72 1016.3
20260902062157 26 90 4.8 4.8 0.00 0.00 0.00 72 1016.3
20260902061723 26 76 3.2 3.2 0.00 0.00 0.00 72 1016.3
20260902061223 26 62 0.0 4.8 0.00 0.00 0.00 73 1016.4
20260902061159 26 59 4.8 4.8 0.00 0.00 0.00 73 1016.4
20260902060722 26 59 4.8 4.8 0.00 0.00 0.00 74 1016.4
20260902060223 26 48 3.2 4.8 0.00 0.00 0.00 74 1016.4
20260902060156 26 56 4.8 4.8 0.00 0.00 0.00 74 1016.4
20260902055724 26 71 3.2 4.8 0.00 0.00 0.00 74 1016.5
20260902055222 26 61 1.6 3.2 0.00 0.00 0.00 75 1016.5
20260902055157 26 56 3.2 3.2 0.00 0.00 0.00 75 1016.5
20260902054723 26 55 3.2 3.2 0.00 0.00 0.00 75 1016.5
20260902054224 26 68 1.6 1.6 0.00 0.00 0.00 75 1016.6
20260902054156 26 68 0.0 4.8 0.00 0.00 0.00 75 1016.6
20260902053722 26 66 1.6 3.2 0.00 0.00 0.00 75 1016.6
20260902053223 26 69 3.2 3.2 0.00 0.00 0.00 75 1016.6
20260902053155 26 65 1.6 3.2 0.00 0.00 0.00 75 1016.6
20260902052724 26 68 1.6 1.6 0.00 0.00 0.00 75 1016.7
20260902052222 26 72 1.6 1.6 0.00 0.00 0.00 74 1016.7
20260902052158 26 72 1.6 1.6 0.00 0.00 0.00 74 1016.7
20260902051723 26 64 1.6 3.2 0.00 0.00 0.00 74 1016.7
20260902051224 26 64 0.0 1.6 0.00 0.00 0.00 74 1016.7
20260902051156 26 64 1.6 1.6 0.00 0.00 0.00 74 1016.7
20260902050723 26 64 0.0 1.6 0.00 0.00 0.00 74 1016.7
20260902050222 26 64 1.6 3.2 0.00 0.00 0.00 74 1016.7
20260902050156 26 64 3.2 3.2 0.00 0.00 0.00 74 1016.7
20260902045723 26 64 3.2 3.2 0.00 0.00 0.00 74 1016.7
20260902045227 26 61 3.2 3.2 0.00 0.00 0.00 75 1016.7
20260902045224 26 61 0.0 1.6 0.00 0.00 0.00 75 1016.7
20260902045155 26 61 3.2 3.2 0.00 0.00 0.00 75 1016.7
20260902044722 26 64 0.0 4.8 0.00 0.00 0.00 75 1016.7
20260902044223 26 64 1.6 3.2 0.00 0.00 0.00 75 1016.7
20260902044157 26 58 3.2 3.2 0.00 0.00 0.00 75 1016.7
20260902043724 26 72 3.2 3.2 0.00 0.00 0.00 75 1016.7
20260902043222 26 83 1.6 3.2 0.00 0.00 0.00 76 1016.7
20260902043158 26 83 1.6 1.6 0.00 0.00 0.00 76 1016.7
20260902042723 26 97 0.0 0.0 0.00 0.00 0.00 76 1016.7
20260902042224 26 97 0.0 0.0 0.00 0.00 0.00 76 1016.7
20260902042155 26 97 0.0 0.0 0.00 0.00 0.00 76 1016.7
20260902041722 26 97 0.0 0.0 0.00 0.00 0.00 76 1016.7
20260902041223 26 97 0.0 0.0 0.00 0.00 0.00 75 1016.9
20260902041156 26 97 0.0 0.0 0.00 0.00 0.00 75 1016.9
20260902040723 27 97 0.0 0.0 0.00 0.00 0.00 74 1016.9
20260902040223 27 97 0.0 0.0 0.00 0.00 0.00 74 1016.9
20260902040156 27 97 0.0 0.0 0.00 0.00 0.00 74 1016.9
20260902035722 27 97 1.6 1.6 0.00 0.00 0.00 73 1016.9
20260902035223 27 97 0.0 0.0 0.00 0.00 0.00 73 1016.9
20260902035156 27 97 0.0 0.0 0.00 0.00 0.00 73 1016.9
20260902034723 27 97 0.0 0.0 0.00 0.00 0.00 73 1016.9
20260902034222 27 97 0.0 0.0 0.00 0.00 0.00 72 1016.8
20260902034157 27 97 0.0 0.0 0.00 0.00 0.00 72 1016.8
20260902033723 27 97 0.0 0.0 0.00 0.00 0.00 72 1016.8
20260902033223 27 97 0.0 0.0 0.00 0.00 0.00 71 1016.8
20260902033156 27 100 0.0 0.0 0.00 0.00 0.00 71 1016.8
20260902032722 27 93 0.0 1.6 0.00 0.00 0.00 71 1016.7
20260902032222 27 97 0.0 0.0 0.00 0.00 0.00 70 1016.7
20260902032155 27 97 0.0 0.0 0.00 0.00 0.00 70 1016.7
20260902031723 28 93 0.0 0.0 0.00 0.00 0.00 70 1016.7
20260902031223 28 82 3.2 3.2 0.00 0.00 0.00 70 1016.9
20260902031156 28 69 1.6 1.6 0.00 0.00 0.00 70 1016.9
20260902030723 28 73 0.0 0.0 0.00 0.00 0.00 69 1016.9
20260902030222 28 73 3.2 4.8 0.00 0.00 0.00 70 1016.9
20260902030157 28 79 1.6 4.8 0.00 0.00 0.00 70 1016.9
20260902025723 28 109 0.0 4.8 0.00 0.00 0.00 69 1016.8
20260902025223 28 89 1.6 4.8 0.00 0.00 0.00 69 1016.8
20260902025156 28 95 4.8 4.8 0.00 0.00 0.00 70 1016.8
20260902024724 28 80 3.2 3.2 0.00 0.00 0.00 70 1016.8
20260902024222 28 65 3.2 3.2 0.00 0.00 0.00 70 1016.8
20260902024155 28 66 1.6 3.2 0.00 0.00 0.00 70 1016.8
20260902023723 28 72 1.6 3.2 0.00 0.00 0.00 70 1016.8
20260902023224 28 75 0.0 1.6 0.00 0.00 0.00 69 1016.8
20260902023156 28 75 3.2 3.2 0.00 0.00 0.00 69 1016.8
20260902022722 28 73 1.6 1.6 0.00 0.00 0.00 69 1016.7
20260902022223 28 54 3.2 3.2 0.00 0.00 0.00 69 1016.7
20260902022155 28 68 1.6 3.2 0.00 0.00 0.00 69 1016.7
20260902021724 28 72 3.2 3.2 0.00 0.00 0.00 69 1016.7
20260902021222 28 51 1.6 3.2 0.00 0.00 0.00 69 1016.8
20260902021155 28 28 1.6 3.2 0.00 0.00 0.00 69 1016.8
20260902020723 28 68 4.8 4.8 0.00 0.00 0.00 69 1016.8
20260902020234 28 71 1.6 3.2 0.00 0.00 0.00 69 1016.8
20260902020222 28 71 0.0 1.6 0.00 0.00 0.00 69 1016.8
20260902020155 28 71 1.6 3.2 0.00 0.00 0.00 69 1016.8
20260902015723 28 56 0.0 1.6 0.00 0.00 0.00 69 1016.6
20260902015224 28 27 1.6 3.2 0.00 0.00 0.00 69 1016.6
20260902015156 28 8 1.6 4.8 0.00 0.00 0.00 69 1016.6
20260902014722 28 20 1.6 3.2 0.00 0.00 0.00 69 1016.6
20260902014223 28 66 0.0 3.2 0.00 0.00 0.00 69 1016.5
20260902014156 28 73 3.2 3.2 0.00 0.00 0.00 69 1016.5
20260902013724 28 49 3.2 3.2 0.00 0.00 0.00 70 1016.5
20260902013223 28 40 0.0 1.6 0.00 0.00 0.00 70 1016.5
20260902013156 28 41 0.0 3.2 0.00 0.00 0.00 70 1016.5
20260902012722 28 20 3.2 3.2 0.00 0.00 0.00 70 1016.3
20260902012223 28 40 1.6 1.6 0.00 0.00 0.00 71 1016.3
20260902012155 28 40 0.0 1.6 0.00 0.00 0.00 71 1016.3
20260902011723 28 66 3.2 3.2 0.00 0.00 0.00 71 1016.3
20260902011222 28 8 3.2 3.2 0.00 0.00 0.00 71 1016.3
20260902011157 28 10 1.6 3.2 0.00 0.00 0.00 71 1016.3
20260902010723 28 3 3.2 4.8 0.00 0.00 0.00 71 1016.3
20260902010223 28 20 0.0 1.6 0.00 0.00 0.00 71 1016.3
20260902010156 28 21 0.0 3.2 0.00 0.00 0.00 71 1016.3
20260902005722 28 4 3.2 3.2 0.00 0.00 0.00 71 1016.2
20260902005222 28 30 3.2 3.2 0.00 0.00 0.00 71 1016.2
20260902005155 28 30 3.2 3.2 0.00 0.00 0.00 71 1016.2
20260902004723 28 31 1.6 3.2 0.00 0.00 0.00 71 1016.2
20260902004224 28 51 0.0 1.6 0.00 0.00 0.00 71 1016.2
20260902004157 28 11 1.6 3.2 0.00 0.00 0.00 71 1016.2
20260902003722 28 28 1.6 4.8 0.00 0.00 0.00 71 1016.2
20260902003223 28 61 4.8 4.8 0.00 0.00 0.00 71 1016.2
20260902003156 28 10 1.6 3.2 0.00 0.00 0.00 71 1016.2
20260902002723 28 7 0.0 1.6 0.00 0.00 0.00 71 1016.2
20260902002223 28 24 3.2 3.2 0.00 0.00 0.00 71 1016.2
20260902002156 28 25 1.6 4.8 0.00 0.00 0.00 71 1016.2
20260902001724 28 25 1.6 3.2 0.00 0.00 0.00 71 1016.2
20260902001222 28 11 3.2 3.2 0.00 0.00 0.00 70 1016.4
20260902001155 28 11 1.6 3.2 0.00 0.00 0.00 70 1016.4
20260902000723 29 11 3.2 4.8 0.00 0.00 0.00 70 1016.4
20260902000222 29 7 1.6 3.2 0.00 0.00 0.00 70 1016.4
20260902000155 29 17 1.6 3.2 0.00 0.00 0.00 70 1016.4
20260901235723 29 6 3.2 3.2 0.00 0.00 0.00 69 1016.4
20260901235223 30 6 1.6 1.6 0.00 0.00 0.00 69 1016.4
20260901235156 30 6 1.6 1.6 0.00 0.00 0.00 69 1016.4
20260901234723 30 6 3.2 3.2 0.00 0.00 0.00 68 1016.4
20260901234223 30 6 3.2 3.2 0.00 0.00 0.00 68 1016.4
20260901234156 30 6 1.6 3.2 0.00 0.00 0.00 68 1016.4
20260901233723 30 6 1.6 3.2 0.00 0.00 0.00 67 1016.4
20260901233222 30 61 0.0 1.6 0.00 0.00 0.00 67 1016.4
20260901233157 30 61 0.0 1.6 0.00 0.00 0.00 67 1016.4
20260901232723 30 61 0.0 0.0 0.00 0.00 0.00 67 1016.5
20260901232223 30 66 1.6 3.2 0.00 0.00 0.00 66 1016.5
20260901232156 30 55 1.6 1.6 0.00 0.00 0.00 66 1016.5
20260901231723 30 11 0.0 0.0 0.00 0.00 0.00 66 1016.5
20260901231222 30 11 0.0 1.6 0.00 0.00 0.00 65 1016.4
20260901231158 30 11 0.0 1.6 0.00 0.00 0.00 65 1016.4
20260901230722 30 11 0.0 1.6 0.00 0.00 0.00 65 1016.4
20260901230223 31 11 0.0 3.2 0.00 0.00 0.00 65 1016.4
20260901230156 31 11 1.6 4.8 0.00 0.00 0.00 65 1016.4
20260901225723 31 13 3.2 3.2 0.00 0.00 0.00 65 1016.2
20260901225223 31 24 0.0 3.2 0.00 0.00 0.00 65 1016.2
20260901225156 31 32 1.6 1.6 0.00 0.00 0.00 65 1016.2
20260901224722 31 18 0.0 1.6 0.00 0.00 0.00 64 1016.2
20260901224222 31 18 1.6 1.6 0.00 0.00 0.00 65 1016.3
20260901224157 31 47 0.0 3.2 0.00 0.00 0.00 65 1016.3
20260901223722 31 357 0.0 1.6 0.00 0.00 0.00 64 1016.3
20260901223223 31 51 0.0 3.2 0.00 0.00 0.00 64 1016.3
20260901223156 31 49 3.2 4.8 0.00 0.00 0.00 62 1016.3
20260901222722 31 76 0.0 3.2 0.00 0.00 0.00 64 1016.2
20260901222223 31 71 3.2 4.8 0.00 0.00 0.00 63 1016.2
20260901222156 31 65 4.8 6.4 0.00 0.00 0.00 63 1016.2
20260901221724 31 72 3.2 3.2 0.00 0.00 0.00 61 1016.2
20260901221222 31 120 3.2 4.8 0.00 0.00 0.00 61 1016.3
20260901221157 31 85 3.2 4.8 0.00 0.00 0.00 61 1016.3
20260901220722 31 109 3.2 4.8 0.00 0.00 0.00 60 1016.3
20260901220223 32 58 3.2 3.2 0.00 0.00 0.00 62 1016.3
20260901220155 32 52 0.0 0.0 0.00 0.00 0.00 61 1016.3
20260901215723 32 58 4.8 4.8 0.00 0.00 0.00 60 1016.3
20260901215222 32 55 1.6 3.2 0.00 0.00 0.00 63 1016.3
20260901215157 32 51 3.2 3.2 0.00 0.00 0.00 63 1016.3
20260901214723 32 68 0.0 0.0 0.00 0.00 0.00 63 1016.3
20260901214223 32 73 0.0 0.0 0.00 0.00 0.00 60 1016.2
20260901214157 32 73 0.0 0.0 0.00 0.00 0.00 60 1016.2
20260901213723 32 75 4.8 4.8 0.00 0.00 0.00 62 1016.2
20260901213223 32 76 0.0 0.0 0.00 0.00 0.00 58 1016.2
20260901213156 32 76 0.0 1.6 0.00 0.00 0.00 58 1016.2
20260901212722 32 4 1.6 4.8 0.00 0.00 0.00 58 1016.4
20260901212224 32 56 1.6 8.0 0.00 0.00 0.00 58 1016.4
20260901212157 32 38 6.4 8.0 0.00 0.00 0.00 58 1016.4
20260901211722 32 0 1.6 3.2 0.00 0.00 0.00 58 1016.4
20260901211232 32 8 3.2 4.8 0.00 0.00 0.00 58 1016.5
20260901211223 32 11 3.2 4.8 0.00 0.00 0.00 58 1016.5
20260901211155 32 8 3.2 4.8 0.00 0.00 0.00 58 1016.5
20260901210723 32 16 4.8 4.8 0.00 0.00 0.00 58 1016.5
20260901210222 33 66 1.6 3.2 0.00 0.00 0.00 56 1016.5
20260901210157 33 62 1.6 3.2 0.00 0.00 0.00 55 1016.5
20260901205723 33 155 6.4 6.4 0.00 0.00 0.00 57 1016.6
20260901205223 33 40 1.6 6.4 0.00 0.00 0.00 58 1016.6
20260901205157 33 0 1.6 3.2 0.00 0.00 0.00 58 1016.6
20260901204723 33 79 1.6 3.2 0.00 0.00 0.00 56 1016.6
20260901204224 33 62 6.4 8.0 0.00 0.00 0.00 54 1016.7
20260901204156 33 51 4.8 8.0 0.00 0.00 0.00 56 1016.7
20260901203724 33 30 3.2 9.7 0.00 0.00 0.00 57 1016.7
20260901203222 33 0 0.0 0.0 0.00 0.00 0.00 56 1016.7
20260901203157 33 0 0.0 0.0 0.00 0.00 0.00 56 1016.7
20260901202723 33 56 0.0 1.6 0.00 0.00 0.00 53 1016.8
20260901202223 33 61 6.4 9.7 0.00 0.00 0.00 56 1016.8
20260901202155 33 13 3.2 8.0 0.00 0.00 0.00 56 1016.8
20260901201723 33 152 1.6 3.2 0.00 0.00 0.00 57 1016.8
20260901201224 33 147 0.0 3.2 0.00 0.00 0.00 53 1017.0
20260901201206 33 143 3.2 4.8 0.00 0.00 0.00 53 1017.0
20260901200723 33 61 1.6 6.4 0.00 0.00 0.00 55 1017.0
20260901200223 33 109 4.8 9.7 0.00 0.00 0.00 54 1017.0
20260901200156 33 110 9.7 9.7 0.00 0.00 0.00 54 1017.0
20260901195724 33 52 0.0 4.8 0.00 0.00 0.00 53 1017.1
20260901195222 33 83 4.8 4.8 0.00 0.00 0.00 52 1017.1
20260901195157 33 79 6.4 6.4 0.00 0.00 0.00 54 1017.1
20260901194723 33 120 0.0 3.2 0.00 0.00 0.00 57 1017.1
20260901194223 33 103 4.8 4.8 0.00 0.00 0.00 57 1017.3
20260901194155 33 123 3.2 3.2 0.00 0.00 0.00 57 1017.3
20260901193723 33 65 1.6 4.8 0.00 0.00 0.00 55 1017.3
20260901193222 33 116 4.8 9.7 0.00 0.00 0.00 55 1017.3
20260901193156 33 96 4.8 4.8 0.00 0.00 0.00 55 1017.3
20260901192722 33 313 0.0 1.6 0.00 0.00 0.00 55 1017.6
20260901192222 32 3 3.2 3.2 0.00 0.00 0.00 53 1017.6
20260901192156 32 51 1.6 8.0 0.00 0.00 0.00 53 1017.6
20260901191723 32 82 3.2 3.2 0.00 0.00 0.00 55 1017.6
20260901191223 32 192 0.0 1.6 0.00 0.00 0.00 61 1017.6
20260901191155 32 176 1.6 3.2 0.00 0.00 0.00 57 1017.6
20260901190723 32 38 1.6 3.2 0.00 0.00 0.00 54 1017.6
20260901190222 32 100 6.4 6.4 0.00 0.00 0.00 59 1017.6
20260901190157 32 119 4.8 4.8 0.00 0.00 0.00 59 1017.6
20260901185722 32 192 3.2 3.2 0.00 0.00 0.00 57 1017.8
20260901185222 32 56 4.8 8.0 0.00 0.00 0.00 59 1017.8
20260901185155 32 103 8.0 9.7 0.00 0.00 0.00 59 1017.8
20260901184723 32 120 1.6 4.8 0.00 0.00 0.00 56 1017.8
20260901184223 32 116 3.2 3.2 0.00 0.00 0.00 60 1017.9
20260901184157 32 172 0.0 0.0 0.00 0.00 0.00 58 1017.9
20260901183723 32 271 0.0 1.6 0.00 0.00 0.00 56 1017.9
20260901183223 32 141 3.2 8.0 0.00 0.00 0.00 58 1017.9
20260901183156 32 88 1.6 4.8 0.00 0.00 0.00 58 1017.9
20260901182724 32 138 4.8 9.7 0.00 0.00 0.00 58 1018.0
20260901182224 32 95 0.0 1.6 0.00 0.00 0.00 60 1018.0
20260901182156 32 95 0.0 4.8 0.00 0.00 0.00 60 1018.0
20260901181722 32 354 4.8 4.8 0.00 0.00 0.00 62 1018.0
20260901181223 32 49 1.6 3.2 0.00 0.00 0.00 58 1018.2
20260901181157 32 65 1.6 4.8 0.00 0.00 0.00 58 1018.2
20260901180723 32 51 1.6 4.8 0.00 0.00 0.00 59 1018.2
20260901180223 32 64 1.6 4.8 0.00 0.00 0.00 63 1018.2
20260901180157 32 90 4.8 4.8 0.00 0.00 0.00 63 1018.2
20260901175724 32 10 0.0 0.0 0.00 0.00 0.00 60 1018.3
20260901175224 32 52 3.2 3.2 0.00 0.00 0.00 60 1018.3
20260901175156 32 52 3.2 8.0 0.00 0.00 0.00 60 1018.3
20260901174722 32 0 0.0 0.0 0.00 0.00 0.00 58 1018.3
20260901174223 32 28 3.2 4.8 0.00 0.00 0.00 58 1018.4
20260901174156 32 1 1.6 4.8 0.00 0.00 0.00 58 1018.4
20260901173722 32 68 4.8 4.8 0.00 0.00 0.00 58 1018.4
20260901173223 32 3 0.0 0.0 0.00 0.00 0.00 64 1018.4
20260901173156 32 3 0.0 0.0 0.00 0.00 0.00 64 1018.4
20260901172723 32 3 0.0 3.2 0.00 0.00 0.00 61 1018.6
20260901172224 32 100 6.4 6.4 0.00 0.00 0.00 57 1018.6
20260901172156 32 127 6.4 9.7 0.00 0.00 0.00 57 1018.6
20260901171722 32 100 3.2 3.2 0.00 0.00 0.00 59 1018.6
20260901171222 32 65 0.0 1.6 0.00 0.00 0.00 62 1018.8
20260901171155 32 103 1.6 1.6 0.00 0.00 0.00 62 1018.8
20260901170723 32 152 1.6 4.8 0.00 0.00 0.00 59 1018.8
20260901170223 32 55 0.0 1.6 0.00 0.00 0.00 58 1018.8
20260901170156 32 55 3.2 3.2 0.00 0.00 0.00 58 1018.8
20260901165723 32 69 4.8 6.4 0.00 0.00 0.00 58 1018.8
20260901165224 32 181 1.6 3.2 0.00 0.00 0.00 58 1018.8
20260901165156 32 152 0.0 1.6 0.00 0.00 0.00 58 1018.8
20260901164722 32 4 3.2 4.8 0.00 0.00 0.00 62 1018.8
20260901164222 32 93 0.0 1.6 0.00 0.00 0.00 63 1018.9
20260901164201 32 93 0.0 0.0 0.00 0.00 0.00 63 1018.9
20260901163722 32 69 3.2 3.2 0.00 0.00 0.00 64 1018.9
20260901163223 32 136 0.0 0.0 0.00 0.00 0.00 62 1018.9
20260901163155 32 136 0.0 0.0 0.00 0.00 0.00 62 1018.9
20260901162722 32 113 3.2 4.8 0.00 0.00 0.00 60 1019.1
20260901162223 32 52 1.6 1.6 0.00 0.00 0.00 63 1019.1
20260901162156 32 76 1.6 3.2 0.00 0.00 0.00 63 1019.1
20260901161723 32 202 0.0 0.0 0.00 0.00 0.00 63 1019.1
20260901161222 32 160 0.0 0.0 0.00 0.00 0.00 62 1019.2
20260901161157 32 160 0.0 1.6 0.00 0.00 0.00 63 1019.2
20260901160722 31 275 0.0 0.0 0.00 0.00 0.00 64 1019.2
20260901160224 31 239 0.0 0.0 0.00 0.00 0.00 64 1019.2
20260901160156 31 219 0.0 0.0 0.00 0.00 0.00 64 1019.2
20260901155722 32 265 0.0 0.0 0.00 0.00 0.00 67 1019.2
20260901155222 32 200 1.6 3.2 0.00 0.00 0.00 67 1019.2
20260901155157 32 196 1.6 1.6 0.00 0.00 0.00 66 1019.2
20260901154723 32 222 0.0 1.6 0.00 0.00 0.00 66 1019.2
20260901154222 31 147 0.0 0.0 0.00 0.00 0.00 67 1019.3
20260901154157 31 147 0.0 0.0 0.00 0.00 0.00 67 1019.3
20260901153722 31 147 0.0 1.6 0.00 0.00 0.00 65 1019.3
20260901153223 31 184 1.6 3.2 0.00 0.00 0.00 71 1019.3
20260901153159 31 106 0.0 0.0 0.00 0.00 0.00 71 1019.3
20260901152723 30 106 0.0 0.0 0.00 0.00 0.00 74 1019.4
20260901152223 30 200 0.0 0.0 0.00 0.00 0.00 74 1019.4
20260901152156 30 200 0.0 1.6 0.00 0.00 0.00 74 1019.4
20260901151724 30 175 0.0 1.6 0.00 0.00 0.00 75 1019.4
20260901151222 30 154 4.8 4.8 0.00 0.00 0.00 74 1019.3
20260901151158 30 161 0.0 0.0 0.00 0.00 0.00 74 1019.3
20260901150722 30 145 1.6 1.6 0.00 0.00 0.00 74 1019.3
20260901150223 30 175 0.0 3.2 0.00 0.00 0.00 74 1019.3
20260901150157 30 162 0.0 1.6 0.00 0.00 0.00 74 1019.3
20260901145722 30 160 1.6 1.6 0.00 0.00 0.00 75 1019.4
20260901145222 29 89 0.0 0.0 0.00 0.00 0.00 76 1019.4
20260901145157 29 134 0.0 0.0 0.00 0.00 0.00 76 1019.4
20260901144723 29 148 0.0 0.0 0.00 0.00 0.00 76 1019.4
20260901144223 29 148 0.0 0.0 0.00 0.00 0.00 75 1019.3
20260901144156 29 148 0.0 0.0 0.00 0.00 0.00 75 1019.3
20260901143723 29 104 0.0 1.6 0.00 0.00 0.00 75 1019.3
20260901143223 30 104 1.6 3.2 0.00 0.00 0.00 73 1019.3
20260901143156 30 169 1.6 3.2 0.00 0.00 0.00 72 1019.3
20260901142724 29 100 3.2 3.2 0.00 0.00 0.00 73 1019.3
20260901142222 29 155 1.6 4.8 0.00 0.00 0.00 73 1019.3
20260901142159 29 124 3.2 3.2 0.00 0.00 0.00 73 1019.3
20260901141722 28 109 0.0 3.2 0.00 0.00 0.00 74 1019.3
20260901141223 28 119 1.6 1.6 0.00 0.00 0.00 74 1019.2
20260901141157 28 119 0.0 1.6 0.00 0.00 0.00 74 1019.2
20260901140723 28 172 0.0 0.0 0.00 0.00 0.00 77 1019.2
20260901140224 28 141 4.8 6.4 0.00 0.00 0.00 77 1019.2
20260901140201 28 112 3.2 4.8 0.00 0.00 0.00 77 1019.2
20260901135722 28 158 0.0 0.0 0.00 0.00 0.00 77 1019.2
20260901135223 28 147 1.6 1.6 0.00 0.00 0.00 80 1019.2
20260901135156 28 174 0.0 1.6 0.00 0.00 0.00 80 1019.2
20260901134724 27 138 1.6 3.2 0.00 0.00 0.00 80 1019.2
20260901134222 27 130 0.0 0.0 0.00 0.00 0.00 80 1019.2
20260901134158 27 130 0.0 1.6 0.00 0.00 0.00 80 1019.2
20260901133722 27 110 0.0 1.6 0.00 0.00 0.00 81 1019.2
20260901133223 27 141 4.8 4.8 0.00 0.00 0.00 82 1019.2
20260901133155 27 131 3.2 3.2 0.00 0.00 0.00 82 1019.2
20260901132723 26 131 0.0 1.6 0.00 0.00 0.00 83 1019.3
20260901132223 26 126 3.2 3.2 0.00 0.00 0.00 83 1019.3
20260901132156 26 171 1.6 3.2 0.00 0.00 0.00 83 1019.3
20260901131723 26 165 0.0 3.2 0.00 0.00 0.00 84 1019.3
20260901131222 26 157 0.0 0.0 0.00 0.00 0.00 84 1019.3
20260901131200 26 157 0.0 1.6 0.00 0.00 0.00 84 1019.3
20260901130722 26 126 0.0 3.2 0.00 0.00 0.00 84 1019.3
20260901130223 25 140 1.6 4.8 0.00 0.00 0.00 85 1019.3
20260901130157 25 102 3.2 3.2 0.00 0.00 0.00 85 1019.3
20260901125724 25 113 1.6 3.2 0.00 0.00 0.00 85 1019.3
20260901125222 25 103 4.8 4.8 0.00 0.00 0.00 85 1019.3
20260901125200 25 93 0.0 3.2 0.00 0.00 0.00 85 1019.3
20260901124722 25 103 1.6 1.6 0.00 0.00 0.00 86 1019.3
20260901124223 25 102 3.2 3.2 0.00 0.00 0.00 86 1019.2
20260901124157 25 104 1.6 1.6 0.00 0.00 0.00 86 1019.2
20260901123723 25 80 1.6 1.6 0.00 0.00 0.00 87 1019.2
20260901123223 24 104 1.6 3.2 0.00 0.00 0.00 87 1019.2
20260901123159 24 99 3.2 3.2 0.00 0.00 0.00 87 1019.2
20260901122724 24 75 0.0 1.6 0.00 0.00 0.00 87 1019.2
20260901122224 24 85 1.6 3.2 0.00 0.00 0.00 87 1019.2
20260901122157 24 103 3.2 3.2 0.00 0.00 0.00 87 1019.2
20260901121722 24 93 3.2 3.2 0.00 0.00 0.00 87 1019.2
20260901121223 24 71 1.6 1.6 0.00 0.00 0.00 87 1018.9
20260901121157 24 79 1.6 3.2 0.00 0.00 0.00 87 1018.9
20260901120723 24 93 1.6 3.2 0.00 0.00 0.00 87 1018.9
20260901120223 24 99 3.2 3.2 0.00 0.00 0.00 87 1018.9
20260901120159 24 93 3.2 3.2 0.00 0.00 0.00 87 1018.9
20260901115723 24 114 0.0 3.2 0.00 0.00 0.00 87 1018.6
20260901115223 24 93 1.6 4.8 0.00 0.00 0.00 87 1018.6
20260901115156 23 95 1.6 3.2 0.00 0.00 0.00 87 1018.6
20260901114724 23 90 1.6 4.8 0.00 0.00 0.00 87 1018.6
20260901114250 23 76 1.6 1.6 0.00 0.00 0.00 87 1018.5
20260901114222 23 102 3.2 3.2 0.00 0.00 0.00 87 1018.5
20260901114157 23 76 1.6 1.6 0.00 0.00 0.00 87 1018.5
20260901113722 23 96 0.0 1.6 0.00 0.00 0.00 87 1018.5
20260901113223 23 90 0.0 3.2 0.00 0.00 0.00 87 1018.5
20260901113156 24 110 1.6 4.8 0.00 0.00 0.00 87 1018.5
20260901112723 24 88 1.6 3.2 0.00 0.00 0.00 87 1018.2
20260901112223 24 109 0.0 0.0 0.00 0.00 0.00 87 1018.2
20260901112156 24 99 0.0 0.0 0.00 0.00 0.00 87 1018.2
20260901111724 24 124 0.0 0.0 0.00 0.00 0.00 86 1018.2
20260901111222 24 110 0.0 0.0 0.00 0.00 0.00 86 1018.0
20260901111157 24 110 0.0 0.0 0.00 0.00 0.00 86 1018.0
20260901110722 24 113 0.0 0.0 0.00 0.00 0.00 86 1018.0
20260901110223 24 112 0.0 0.0 0.00 0.00 0.00 86 1018.0
20260901110157 24 104 0.0 0.0 0.00 0.00 0.00 86 1018.0
20260901105722 24 104 0.0 0.0 0.00 0.00 0.00 86 1017.9
20260901105222 24 92 0.0 0.0 0.00 0.00 0.00 86 1017.9
20260901105158 24 102 0.0 0.0 0.00 0.00 0.00 86 1017.9
20260901104722 24 90 0.0 0.0 0.00 0.00 0.00 86 1017.9
20260901104341 24 109 0.0 0.0 0.00 0.00 0.00 86 1017.9